Regional Weather Roundup
Issued by NWS

Home | Current Version | Previous Version | Graphics & Text | Print | Product List | Glossary On
Versions: 1 2 3 4 5 6 7 8 9 10 11 12 13 14 15 16 17 18 19 20 21 22 23 24 25 26 27 28 29 30 31 32 33 34 35 36 37 38 39 40 41 42 43 44 45 46 47 48 49 50
000
ASUS43 KMPX 052201
RWRMN
WEATHER ROUNDUP FOR MINNESOTA
NATIONAL WEATHER SERVICE TWIN CITIES/CHANHASSEN MN
500 PM CDT THU MAY 05 2016


NOTE: "FAIR" INDICATES FEW OR NO CLOUDS BELOW 12,000 FEET WITH NO
SIGNIFICANT WEATHER AND/OR OBSTRUCTIONS TO VISIBILITY. N/A MEANS
CURRENT SKY AND/OR WEATHER CONDITIONS ARE NOT AVAILABLE.

MNZ060>063-068>070-052300-
   Twin Cities Metro

CITY           SKY/WX    TMP DP  RH WIND       PRES   REMARKS
TWIN CITIES    MOSUNNY   77  35  21 W13       29.93F
ST PAUL        SUNNY     75  38  26 SW13G20   29.93F
CRYSTAL        SUNNY     78  35  21 SW10      29.92F
BLAINE         SUNNY     77  36  22 SW12      29.92F
EDEN PRAIRIE   SUNNY     78  34  20 SW12      29.92F
SOUTH ST PAUL  SUNNY     76  34  21 W12       29.93F
LAKE ELMO      FAIR      73  39  29 SW8G16    29.94F
$$
MNZ001>005-007-008-013>017-022>024-027-028-052300-
   Northwest Minnesota

CITY           SKY/WX    TMP DP  RH WIND       PRES   REMARKS
BEMIDJI        SUNNY     87  42  20 W20G26    29.78F
HALLOCK        SUNNY     93  21   7 W14G26    29.67F
ROSEAU         SUNNY     93  27   9 W16G24    29.69F
WARROAD        CLOUDY    91  46  21 W21       29.68F
THIEF RVR FALL SUNNY     90  36  14 SW18G25   29.75F
FOSSTON        SUNNY     90  32  12 W15G21    29.78F
DETROIT LAKES  SUNNY     86  37  17 W13       29.83F
MOORHEAD       SUNNY     90  30  12 SW9G23    29.79F
PARK RAPIDS    SUNNY     86  41  20 W13       29.82F
MAHNOMEN       FAIR      89  36  15 W14G28    29.79F
$$
MNZ006-009>011-018-025>026-052300-
   North Central Minnesota

CITY           SKY/WX    TMP DP  RH WIND       PRES   REMARKS
BAUDETTE       MOSUNNY   90  40  17 W18G26    29.69F
FLAG ISLAND    MOSUNNY   79  36  21 NW17      29.67S
INTL FALLS     SUNNY     86  45  23 SW9G22    29.71F
WASKISH        SUNNY     84  46  26 SW14      29.73F
BIG FORK       SUNNY     88  39  18 W13G20    29.76F
LONGVILLE      SUNNY     82  39  21 SW14G21   29.83F
GRAND RAPIDS   SUNNY     82  41  23 SW13G20   29.82F
CRANE LAKE     SUNNY     82  37  20 W6G20     29.75F
ORR            SUNNY     86  34  15 W12G20    29.73F
COOK           SUNNY     82  39  21 W12G20    29.77F
WALKER         FAIR      83  43  23 SW16G24   29.81F
$$
MNZ012-019>021-037-052300-
   Northeast Minnesota

CITY           SKY/WX    TMP DP  RH WIND       PRES   REMARKS
DULUTH         SUNNY     78  38  23 W22G28    29.83F
ELY            SUNNY     81  36  19 SW14      29.78F
HIBBING        SUNNY     80  39  23 W9G21     29.80
EVELETH        SUNNY     81  36  19 W13G22    29.81S
DULUTH HARBOR  SUNNY     77  37  24 SW17G23   29.81F
TWO HARBORS    SUNNY     79  48  34 SW12      29.80F
SILVER BAY     SUNNY     73  37  27 S16G22    29.80F
GRAND MARAIS     N/A     45  35  68 SW3       29.84F
G MARAIS ARPRT SUNNY     63  34  34 S9G18     29.85F
$$
MNZ029>031-032-039>041-046>048-054>057-064-052300-
   West Central Minnesota

CITY           SKY/WX    TMP DP  RH WIND       PRES   REMARKS
FERGUS FALLS   SUNNY     88  43  20 W15       29.79F
WHEATON        SUNNY     88  45  22 SW15      29.86F
MORRIS         SUNNY     84  43  23 SW15      29.87F
ALEXANDRIA     SUNNY     84  42  22 SW15      29.89F
ELBOW LAKE     FAIR      85  42  22 SW16      29.86F
WADENA         MOSUNNY   84  45  24 W10G21    29.85F
GLENWOOD       SUNNY     82  43  24 SW13      29.90F
APPLETON       SUNNY     84  37  18 SW9G17    29.88F
BENSON         SUNNY     84  37  18 W9G16     29.89F
ORTONVILLE     SUNNY     84  39  20 SW9G16    29.88F
MADISON        SUNNY     82  37  20 W8G17     29.89F
WILLMAR        FAIR      84  39  20 W14       29.91F
$$
MNZ033>034-036-042>043-049>051-058-059-052300-
   Central Minnesota

CITY           SKY/WX    TMP DP  RH WIND       PRES   REMARKS
ST CLOUD       SUNNY     80  37  21 SW16      29.90
SAUK CENTRE      N/A     81  43  25 SW14G20   29.89F
PAYNESVILLE    SUNNY     82  35  18 S12       29.91F
AITKIN         SUNNY     84  27  12 SW13G23   29.84S
PINE RIVER     SUNNY     82  48  30 SW14G20   29.87F
BRAINERD       SUNNY     81  39  22 SW14G23   29.86F
STAPLES        SUNNY     82  41  23 SW9G16    29.86F
LONG PRAIRIE   FAIR      81  43  26 S13G18    29.90F
LITTLE FALLS   SUNNY     81  34  18 SW12G18   29.89F
LITCHFIELD     SUNNY     82  37  20 SW3       29.92F
BUFFALO        SUNNY     78  35  20 SW10G16   29.93F
MAPLE LAKE     SUNNY     80  40  24 SW8       29.92F
HUTCHINSON     SUNNY     81  40  22 SW8G16    29.94F
$$
MNZ037-044-045-052-053-052300-
   East Central Minnesota

CITY           SKY/WX    TMP DP  RH WIND       PRES   REMARKS
PRINCETON      SUNNY     81  37  21 SW12G20   29.90F
MORA           SUNNY     75  36  23 SW8G17    29.90F
CAMBRIDGE        N/A     79  52  38 SW12G17   29.89F
RUSH CITY      SUNNY     76  37  24 SW9       29.91S
MOOSE LAKE     SUNNY     79  41  25 W10G17    29.84F
HINCKLEY       CLOUDY    77  43  29 SW13G21   29.89F
CLOQUET        SUNNY     79  30  17 SW16G25   29.84F
MCGREGOR       SUNNY     79  41  25 SW10G20   29.85F
$$
MNZ071>073-080-081-089-090-097-098-052300-
   Southwest Minnesota

CITY           SKY/WX    TMP DP  RH WIND       PRES   REMARKS
MONTEVIDEO     SUNNY     86  43  22 W9G17     29.91F
GRANITE FALLS  SUNNY     86  42  21 SW10G20   29.92F
CANBY          SUNNY     84  45  25 SW9G17    29.92S
MARSHALL       SUNNY     82  43  25 SW8G17    29.93F
REDWOOD FALLS  SUNNY     82  38  20 SW12      29.92F
OLIVIA         SUNNY     79  41  25 W13G18    29.92S
PIPESTONE      SUNNY     77  39  25 SW12G20   29.97F
WINDOM         SUNNY     79  37  22 SW3G16    29.97F
WORTHINGTON    SUNNY     77  39  25 SW10      29.98F
JACKSON        SUNNY     77  30  18 W9G16     29.98F
TRACY          SUNNY     81  43  26 SW12      29.95F
SLAYTON        SUNNY     78  39  24 SW14      29.99F
$$
MNZ065>067-074>077-082>085-091>093-052300-
   South Central Minnesota

CITY           SKY/WX    TMP DP  RH WIND       PRES   REMARKS
MANKATO        SUNNY     77  34  20 SW10      29.96F
NEW ULM        SUNNY     79  37  22 SW14      29.95F
ST JAMES       SUNNY     73  36  25 CALM      29.97F
FAIRMONT       SUNNY     75  36  23 SW7       29.98F
GLENCOE        SUNNY     80  42  25 S9        29.93F
OWATONNA       SUNNY     75  30  19 SW15      29.96F
WASECA         SUNNY     77  34  20 SW13G21   29.97F
ALBERT LEA     SUNNY     75  30  19 W6        29.97F
$$
MNZ078>079-086>088-094>096-052300-
   Southeast Minnesota

CITY           SKY/WX    TMP DP  RH WIND       PRES   REMARKS
ROCHESTER      SUNNY     72  36  26 W13G21    29.98F
RED WING       SUNNY     73  32  21 W5        29.94F
STANTON        SUNNY     76  35  22 W9        29.93F
DODGE CENTER   CLOUDY    72  36  26 W7        29.98F
WINONA         SUNNY     70  34  26 W3        29.97F
AUSTIN         SUNNY     70  36  28 W8        29.98F
PRESTON        SUNNY     69  35  29 W8        29.99F
$$
ABBREVIATIONS USED IN REMARKS
   TC - TEMPERATURES IN CELSIUS
  WCI - WIND CHILL INDEX
   HX - HEAT INDEX
  VSB - VISIBILITY
$$




USA.gov is the U.S. government's official web portal to all federal, state and local government web resources and services.